Location: Palau
(42.3086°N, 3.1507°E)
Time: 21:54:27
(UTC+00:00)

Meteor 2-10 Rocket - Pass Details

Date: 26 May 2020
Orbit: 733 x 885 km, 81.2° (Epoch: 04 July)

Event Time Altitude Azimuth Distance (km) Brightness Sun altitude
Rises 01:55:09 0° 349° (N) 3,329 7.5 -19.7°
Reaches altitude 10° 01:57:35 10° 350° (N) 2,371 6.7 -19.5°
Maximum altitude 02:02:56 89° 258° (WSW) 776 3.4 -18.9°
Enters shadow 02:06:00 25° 172° (S) 1,497 4.6 -18.6°
